Location: Most
(50.5133°N, 13.6207°E)
Time: 04:44:36
(UTC+01:00)

VELOX 1 - Visible Passes

Search period start: 29 November 2021 00:00
Search period end: 09 December 2021 00:00
Orbit: 627 x 641 km, 98.3° (Epoch: 28 November)

Date Brightness Start Highest point End Pass type
(mag) Time Alt. Az. Time Alt. Az. Time Alt. Az.
29 Nov ? 18:05:03 10° N 18:08:42 26° WNW 18:12:20 10° WSW visible
30 Nov ? 16:49:51 10° NNE 16:54:18 71° ESE 16:58:42 10° S visible
30 Nov ? 18:27:13 10° NNW 18:30:10 18° WNW 18:33:05 10° W visible
01 Dec ? 17:11:33 10° NNE 17:16:00 74° WNW 17:20:23 10° SSW visible
01 Dec ? 18:49:50 10° NNW 18:51:34 12° NW 18:53:18 10° WNW visible
02 Dec ? 17:33:20 10° N 17:37:37 47° WNW 17:41:50 10° SW visible
03 Dec ? 17:55:16 10° N 17:59:10 31° WNW 18:03:01 10° SW visible
04 Dec ? 16:40:16 10° NNE 16:44:39 56° ESE 16:48:59 10° S visible
04 Dec ? 18:17:20 10° NNW 18:20:39 21° WNW 18:23:57 10° WSW visible
05 Dec ? 17:01:54 10° NNE 17:06:22 89° ESE 17:10:46 10° SSW visible
05 Dec ? 18:39:40 10° NNW 18:42:05 15° NW 18:44:28 10° W visible
06 Dec ? 17:23:39 10° N 17:28:00 58° WNW 17:32:20 10° SSW visible
07 Dec ? 17:45:30 10° N 17:49:35 37° WNW 17:53:38 10° SW visible
08 Dec ? 18:07:28 10° N 18:11:06 25° WNW 18:14:41 10° WSW visible
